This is the latest recevied weather packets stored in our database for station/object IA5KRO-13. If no packets are shown the sender has not sent any weather packets the latest 1 day(s).
| Time | Temp. | Humidity | Pressure | Rain* | Wind** | Luminosity | Snow |
|---|---|---|---|---|---|---|---|
| 1778014509 | 17.78° C | 87% | 1020 hPa | 0 mm | 0.89 m/s, 287° | - | - |
| 1778014213 | 17.78° C | 86% | 1020 hPa | 0 mm | 2.68 m/s, 270° | - | - |
| 1778013914 | 17.78° C | 86% | 1020 hPa | 0 mm | 1.79 m/s, 272° | - | - |
| 1778013613 | 17.78° C | 86% | 1020 hPa | 0 mm | 1.79 m/s, 172° | - | - |
| 1778013311 | 17.78° C | 88% | 1020 hPa | 0 mm | 1.79 m/s, 263° | - | - |
| 1778013025 | 17.78° C | 89% | 1020 hPa | 0 mm | 1.79 m/s, 301° | - | - |
| 1778012709 | 17.78° C | 89% | 1020 hPa | 0 mm | 2.68 m/s, 133° | - | - |
| 1778012413 | 17.78° C | 90% | 1020 hPa | 0 mm | 0.89 m/s, 243° | - | - |
| 1778012114 | 17.78° C | 89% | 1020 hPa | 0 mm | 3.13 m/s, 299° | - | - |
| 1778011816 | 17.78° C | 89% | 1020.3 hPa | 0 mm | 1.79 m/s, 93° | - | - |
| 1778011509 | 17.78° C | 89% | 1020.3 hPa | 0 mm | 1.79 m/s, 207° | - | - |
| 1778011232 | 17.78° C | 89% | 1020.3 hPa | 0 mm | 2.68 m/s, 97° | - | - |
| 1778010909 | 17.78° C | 90% | 1020.3 hPa | 0 mm | 1.79 m/s, 236° | - | - |
| 1778010614 | 17.78° C | 91% | 1020.3 hPa | 0 mm | 1.34 m/s, 223° | - | - |
| 1778010313 | 17.78° C | 91% | 1020 hPa | 0 mm | 0.89 m/s, 176° | - | - |
| 1778009709 | 17.78° C | 90% | 1020 hPa | 0 mm | 0.89 m/s, 310° | - | - |
| 1778009424 | 17.78° C | 90% | 1020 hPa | 0 mm | 2.68 m/s, 241° | - | - |
| 1778009109 | 17.78° C | 90% | 1020 hPa | 0 mm | 0.45 m/s, 165° | - | - |
| 1778008814 | 17.78° C | 89% | 1020 hPa | 0 mm | 1.34 m/s, 208° | - | - |
| 1778008513 | 17.78° C | 90% | 1020 hPa | 0 mm | 0.89 m/s, 277° | - | - |
| 1778008213 | 17.78° C | 88% | 1020 hPa | 0 mm | 0.89 m/s, 282° | - | - |
| 1778007911 | 17.78° C | 89% | 1020 hPa | 0 mm | 1.34 m/s, 186° | - | - |
| 1778007633 | 17.78° C | 89% | 1020 hPa | 0 mm | 0.45 m/s, 141° | - | - |
| 1778007309 | 17.78° C | 87% | 1020 hPa | 0 mm | 0.89 m/s, 269° | - | - |
| 1778007013 | 17.78° C | 84% | 1020 hPa | 0 mm | 0.89 m/s, 173° | - | - |
* Rain latest hour (hover to see other rain measurements)
** Current wind speed in m/s (hover to see current wind gust speed)